Location: Unspecified
(0.0000°N, 0.0000°E)
Time: 01:19:31
(UTC+00:00)

JUGNU - Pass Details

Date: 12 December 2017
Orbit: 837 x 864 km, 20.0° (Epoch: 21 July)

Event Time Altitude Azimuth Distance (km) Brightness Sun altitude
Rises 19:56:28 0° 224° (SW) 3,396 ? -27.9°
Reaches altitude 10° 20:00:41 10° 196° (SSW) 2,454 ? -28.9°
Maximum altitude 20:03:10 13° 170° (S) 2,264 ? -29.4°
Enters shadow 20:04:45 12° 154° (SSE) 2,340 ? -29.8°
